Regional Weather Roundup
Issued by NWS Charleston, SC

Current Version | Previous Version | Graphics & Text | Print | Product List | Glossary On
Versions: 1 2 3 4 5 6 7 8 9 10 11 12 13 14 15 16 17 18 19 20 21 22 23 24 25 26 27 28 29 30 31 32 33 34 35 36 37 38 39 40 41 42 43 44 45 46 47 48 49 50
700
ASUS42 KCHS 111413
RWRCHS

REGIONAL WEATHER ROUNDUP
NATIONAL WEATHER SERVICE CHARLESTON SC
900 AM EST THU FEB 11 2016

NOTE: "FAIR" INDICATES FEW OR NO CLOUDS BELOW 12,000 FEET WITH NO
SIGNIFICANT WEATHER AND/OR OBSTRUCTIONS TO VISIBILITY.

NOT ALL STATIONS ARE QUALITY CONTROLLED BY THE NATIONAL
WEATHER SERVICE. USE DATA WITH CAUTION...ESPECIALLY
DEWPOINT OBSERVATIONS.

SCZ027-030-031-034>040-042>050-111500-
...SOUTHEAST SOUTH CAROLINA...

CITY           SKY/WX    TMP DP  RH WIND       PRES   REMARKS
N CHARLESTON   SUNNY     37  17  44 W9        30.29R WCI  30
WATERFRONT PRK   N/A     36  21  54 W5        30.13R WCI  32
MOUNT PLEASANT FAIR      37  19  48 W7        30.29R WCI  32
JOHNS ISLAND   FAIR      39  18  41 W7        30.29S WCI  34
PINOPOLIS        N/A     34  21  60 SW7       30.18R WCI  28
MONCKS CORNER  FAIR      32  14  47 SW8       30.28R WCI  25
SUMMERVILLE    NOT AVBL
BEAUFORT MCAS  SUNNY     39  20  46 SW7       30.29S WCI  34
BEAUFORT ARPT  FAIR      39  21  48 W5        30.29S WCI  36
HILTON HEAD IS SUNNY     39  23  52 W3        30.30R
WALTERBORO     SUNNY     37  21  52 SW6       30.29S WCI  33
ALLENDALE      FAIR      36  21  55 CALM      30.27R

...SOUTHERN MIDLANDS AND PEE DEE...

CITY           SKY/WX    TMP DP  RH WIND       PRES   REMARKS
GEORGETOWN     FAIR      34  19  55 SW7       30.28R WCI  28
KINGSTREE      FAIR      32  19  59 W6        30.27R WCI  26
ORANGEBURG     SUNNY     33  16  49 SW7       30.27R WCI  27
BARNWELL       FAIR      36  21  55 SW3       30.27R
AIKEN          FAIR      32  16  51 SW9       30.26R WCI  24
MANNING        FAIR      32  18  55 SW7       30.27R WCI  26
COLUMBIA       MOSUNNY   33  16  49 SW5       30.24R WCI  29
SUMTER         SUNNY     32  17  52 W6        30.22R WCI  27
FLORENCE       SUNNY     31  15  52 W7        30.25R WCI  24
MYRTLE BEACH   NOT AVBL
N MYRTLE BEACH SUNNY     33  17  51 W5        30.25R WCI  29

$$

GAZ063-065-086>088-099>101-113>116-118-119-134>141-150-111500-
...SOUTHEAST GEORGIA...

CITY           SKY/WX    TMP DP  RH WIND       PRES   REMARKS
SAVANNAH ARPT  SUNNY     38  23  55 CALM      30.30R
HUNTER AAF     SUNNY     38  22  52 VRB1      30.27R
FORT STEWART   SUNNY     37  24  59 CALM      30.27R
STATESBORO     SUNNY     39  21  47 CALM      30.27S
SYLVANIA       SUNNY     36  26  66 CALM      30.28S
CLAXTON        FAIR      36  30  77 CALM      30.28S

...CSRA...CENTRAL AND FAR SOUTHEAST GEORGIA...

CITY           SKY/WX    TMP DP  RH WIND       PRES   REMARKS
THOMSON        SUNNY     37  22  54 S6        30.28R WCI  32
AUGUSTA-BUSH   SUNNY     34  18  52 SW3       30.26R
AUGUSTA-DANIEL NOT AVBL
SWAINSBORO     FAIR      36  25  64 S3        30.27R
VIDALIA        SUNNY     37  27  65 CALM      30.26S
EASTMAN        FAIR      37  26  66 S3        30.27S
HAZLEHURST     FAIR      40  26  58 S3        30.25S
ALMA           SUNNY     37  28  70 CALM      30.27R
WAYCROSS       SUNNY     42  31  65 SW5       30.28S
JESUP          FAIR      39  32  75 SW3       30.29R
BAXLEY         FAIR      37  30  75 S3        30.27R
BRUNSWICK      SUNNY     43  28  56 CALM      30.30S
SAINT SIMONS   SUNNY     42  26  53 SW5       30.29S

$$

SCZ027-028-034-036>038-045-046-048>050-GAZ119-141-111500-
...LAKE AND SUPPLEMENTAL COASTAL OBSERVATIONS...

STATION/POSITION TIME  TEMP    WIND        PRES    WAVE   SWELL
                       AIR SEA DIR/SP/G            HT/PER HT/PER/DIR
                 (UTC) (F)     (DEG/KT/KT) (MB)    (FT/S) (FT/S/D)
WINYAH BAY       NOT AVBL
LAKE MURRAY      NOT AVBL
ACE BASIN NERRS  NOT AVBL
FORT PULASKI     1300   36 49  250/  5/  7 1025.8R
SAPELO ISLAND    1300   38     220/  4     1026.0R

$$

ANZ835-935-AMZ111-154-330-350-352-354-370-450-454-472-111500-
...C-MAN AND BUOY OBSERVATIONS...

STATION/POSITION TIME  TEMP    WIND        PRES    WAVE   SWELL
                       AIR SEA DIR/SP/G            HT/PER HT/PER/DIR
                 (UTC) (F)     (DEG/KT/KT) (MB)    (FT/S) (FT/S/D)
BUOY 41004       NOT AVBL
BUOY 41008       NOT AVBL
FOLLY BEACH CMAN NOT AVBL
CAPERS NEARSHORE 1308   37     290/ 14/ 19 1024.9R
FRIPP NEARSHORE  1300   41     290/ 10/ 12 1024.5R


STATION/POSITION TIME  TEMP    WIND        PRES    WAVE   SWELL
                       AIR SEA DIR/SP/G            HT/PER HT/PER/DIR
                 (UTC) (F)     (DEG/KT/KT) (MB)    (FT/S) (FT/S/D)
5E ST. MARYS GA  1321      55                N/A     1/14   2/ 90/14
FRYING PAN BUOY  NOT AVBL
BUOY 41025       NOT AVBL
CAPE LOOKOUT NC  NOT AVBL
BUOY 41002       NOT AVBL
BUOY 41010       NOT AVBL
ST AUGUSTINE FL  NOT AVBL


$$




USA.gov is the U.S. government's official web portal to all federal, state and local government web resources and services.